Regional Weather Roundup
Issued by NWS Newport/Morehead, NC

Current Version | Previous Version | Text Only | Print | Product List | Glossary Off
Versions: 1 2 3 4 5 6 7 8 9 10 11 12 13 14 15 16 17 18 19 20 21 22 23 24 25 26 27 28 29 30 31 32 33 34 35 36 37 38 39 40 41 42 43 44 45 46 47 48 49 50
000 ASUS42 KMHX 312110 RWRMHX WEATHER ROUNDUP FOR EASTERN NORTH CAROLINA NATIONAL WEATHER SERVICE NEWPORT/MOREHEAD CITY NC 500 PM EDT THU JUL 31 2014 NOTE: "FAIR" INDICATES FEW OR NO CLOUDS BELOW 12,000 FEET WITH NO SIGNIFICANT WEATHER AND/OR OBSTRUCTIONS TO VISIBILITY NCZ015>017-031-032-045>047-102-103-312200- NORTH COAST CITY SKY/WX TMP DP RH WIND PRES REMARKS EDENTON CLOUDY 81 66 59 E3 30.12S ELIZABETH CITY PTSUNNY 81 63 54 E6 30.12F KITTY HAWK MOCLDY 79 62 56 E7 30.12F MANTEO NOT AVBL $$ NCZ045>047-081-094-103-104-312200- CENTRAL COAST CITY SKY/WX TMP DP RH WIND PRES REMARKS FRISCO PTSUNNY 83 62 49 E8 30.13S SWANQUARTER N/A 82 N/A N/A SE7G14 30.09S $$ NCZ095-097-098-100-101-312200- SOUTHERN COAST CITY SKY/WX TMP DP RH WIND PRES REMARKS BEAUFORT PTSUNNY 82 68 62 E10 30.12R CEDAR ISLAND N/A 82 N/A N/A E12 30.15S JACKSONVILLE CLOUDY 82 64 54 SE7 30.11R NEWPORT NOT AVBL PINEY ISLAND MOCLDY 84 65 52 E10 30.11F WILMINGTON CLOUDY 81 68 64 E10 30.09S $$ NCZ011>013-027>030-043-044-078>080-089-090>093-098-312200- COASTAL PLAIN CITY SKY/WX TMP DP RH WIND PRES REMARKS AHOSKIE CLOUDY 80 67 64 CALM 30.13R CLINTON CLOUDY 85 69 58 E5 30.10S ELIZABETHTOWN CLOUDY 83 66 57 SE5 30.09R GOLDSBORO CLOUDY 84 72 67 E8 30.08F GREENVILLE CLOUDY 82 63 51 SE6 30.13S HAVELOCK PTSUNNY 82 65 56 E10 30.12S KENANSVILLE PTSUNNY 82 66 59 E3 30.10F KINSTON CLOUDY 84 66 54 E6 30.11F NEW BERN PTSUNNY 83 64 52 E6 30.12S RICHLANDS CLOUDY 86 66 51 SE9 30.11R ROANOKE RAPIDS NOT AVBL ROCKY MOUNT CLOUDY 82 66 58 E3 30.11F WASHINGTON CLOUDY 81 66 61 SE6 30.12S WHITEVILLE CLOUDY 81 68 64 E5 30.08S $$ AMZ130-135-150-152-154-156-158-170-250-252-270-ANZ085-086-088-633-658-670-312200- MARINE OBSERVATIONS STATION/POSITION TIME TEMP WIND PRES WAVE SWELL AIR SEA DIR/SP/G HT/PER HT/PER (UTC) (F) (DEG/KT/KT) (MB) (FT/S) (FT/S) CHESAPEAKE LIGHT NOT AVBL BUOY 44014 2100 77 82 70/ 4/ 6 1020.4 3/ 7 3/ 7 DUCK 2100 80 78 100/ 8/ 9 1019.6 2E DUCK 2100 N/A 2/ 8 OREGON INLET 2100 78 78 70/ 8/ 10 1020.3 BUOY 44095 2100 78 N/A 3/ 7 20E OREGON INLET NOT AVBL HATTERAS CG 2100 81 80 90/ 7/ 12 1020.6 DIAMOND BUOY 2100 VRB 12/ 14 1019.8 3/ 6 3/ 6 CAPE LOOKOUT 2100 80 90/ 12/ 13 1019.7 BEAUFORT LAB 2100 81 82 100/ 8/ 12 1019.2 30 SE NEW RIVER 2100 81 81 80/ 14/ 16 1019.4 4/ 7 2/ 7 5 SE WRIGHTSVILL 2000 78 81 80/ 14/ 16 N/A BUOY 41002 1954 80 81 200/ 4/ 6 1018.6 4/ 6 3/ 6 BUOY 41004 2100 84 83 120/ 16/ 17 1015.6 4/ 5 2/13 $$

USA.gov is the U.S. government's official web portal to all federal, state and local government web resources and services.